Location: Sternwarte_Laufen
(47.9344°N, 12.9346°E)
Time: 00:42:23
(UTC+02:00)

ISS - Pass Details

Date: 20 May 2017
Orbit: 402 x 408 km, 51.6° (Epoch: 27 May)

Event Time Altitude Azimuth Distance (km) Brightness Sun altitude
Exits shadow 02:15:23 33° 294° (WNW) 712 -2.6 -20.3°
Maximum altitude 02:16:29 49° 349° (NNW) 535 -2.9 -20.2°
Drops below altitude 10° 02:19:41 10° 65° (ENE) 1,466 -0.4 -20.0°
Sets 02:21:49 0° 72° (ENE) 2,326 0.6 -19.9°
